Volver al catálogo

FENGYUN 1C DEB

ActivoPO
NORAD 30857·DEBRIS·🇨🇳 China

Lanzado May 10, 1999 desde Taiyuan Satellite Launch Center

Loading…

Próximos Pases (próximas 24 horas)

TLE

ActualizadoSource: Space-Track

Época: Sep 12, 2026, 12:18 UTC

1 30857U 99025AWT 26255.51254235  .00009537  00000-0  19709-2 0  9997
2 30857  98.9705 270.8802 0035664 181.3807 178.7298 14.60183497  7093

Sigue FENGYUN 1C DEB en tiempo real con AllMySat

Download on the App Store